Date,TemperatureHighF,TemperatureAvgF,TemperatureLowF,DewpointHighF,DewpointAvgF,DewpointLowF,HumidityHigh,HumidityAvg,HumidityLow,PressureMaxIn,PressureMinIn,WindSpeedMaxMPH,WindSpeedAvgMPH,GustSpeedMaxMPH,PrecipitationSumIn
2013-1-1,47,43,38,40,34,25,95,73,46,0.00,40.00,0,-999,0,0.00
2013-1-2,44,38,34,37,31,21,97,76,54,0.00,40.00,0,-999,0,0.00
2013-1-3,40,33,24,23,19,14,92,58,39,0.00,40.00,0,-999,0,0.00
2013-1-4,47,34,20,24,20,17,95,62,31,0.00,40.00,0,-999,0,0.00
2013-1-5,50,36,24,26,21,17,86,56,27,0.00,40.00,0,-999,0,0.00
2013-1-6,54,43,33,34,30,25,96,62,35,0.00,40.00,0,-999,0,0.00
2013-1-7,49,39,26,31,28,24,91,64,41,0.00,40.00,0,-999,0,0.00
2013-1-8,51,36,24,34,29,22,94,77,49,0.00,40.00,0,-999,0,0.00
2013-1-9,65,46,31,49,40,29,96,80,55,0.00,40.00,0,-999,0,0.00
2013-1-10,58,44,34,41,33,26,99,70,29,0.00,40.00,0,-999,0,0.00
2013-1-11,45,40,32,45,38,30,98,91,77,0.00,40.00,0,-999,0,0.00
2013-1-12,51,48,44,49,46,44,98,96,91,0.00,40.00,0,-999,0,0.00
2013-1-13,72,58,49,62,56,49,98,91,66,0.00,40.00,0,-999,0,0.00
2013-1-14,63,57,44,61,54,40,96,90,86,0.00,40.00,0,-999,0,0.00
2013-1-15,44,40,39,40,39,38,98,95,88,0.00,40.00,0,-999,0,0.00
2013-1-16,44,40,36,42,39,36,98,96,93,0.00,40.00,0,-999,0,0.00
2013-1-17,45,40,32,44,39,32,99,97,92,0.00,40.00,0,-999,0,0.00
2013-1-18,41,33,27,32,28,22,100,84,47,0.00,40.00,0,-999,0,0.00
2013-1-19,54,38,26,30,26,23,95,65,33,0.00,40.00,0,-999,0,0.00
2013-1-20,61,46,32,31,27,20,83,51,24,0.00,40.00,0,-999,0,0.00
2013-1-21,56,39,25,27,22,4,93,56,23,0.00,40.00,0,-999,0,0.00
2013-1-22,38,27,20,7,-1,-9,54,29,17,0.00,40.00,0,-999,0,0.00
2013-1-23,34,23,11,13,2,-5,83,46,19,0.00,40.00,0,-999,0,0.00
2013-1-24,30,23,13,23,11,-1,91,64,26,0.00,40.00,0,-999,0,0.00
2013-1-25,26,19,11,20,12,2,91,79,36,0.00,40.00,0,-999,0,0.00
2013-1-26,40,30,22,25,22,20,92,75,51,0.00,40.00,0,-999,0,0.00
2013-1-27,40,31,21,25,21,18,93,69,43,0.00,40.00,0,-999,0,0.00
2013-1-28,56,42,29,44,34,24,98,76,52,0.00,40.00,0,-999,0,0.00
2013-1-29,77,58,43,52,46,41,93,69,41,0.00,40.00,0,-999,0,0.00
2013-1-30,71,66,60,62,58,52,85,75,67,0.00,40.00,0,-999,0,0.00
2013-1-31,66,43,32,62,20,13,88,40,26,0.00,40.00,0,-999,0,0.00
2013-2-1,36,30,19,24,8,-3,73,42,22,0.00,40.00,0,-999,0,0.00
2013-2-2,37,26,15,27,14,6,92,66,28,0.00,40.00,0,-999,0,0.00
2013-2-3,43,33,25,29,24,15,95,72,41,0.00,40.00,0,-999,0,0.00
2013-2-4,40,32,21,22,17,13,85,55,36,0.00,40.00,0,-999,0,0.00
2013-2-5,58,46,36,33,28,22,64,49,35,0.00,40.00,0,-999,0,0.00
2013-2-6,57,42,29,32,28,24,92,62,29,0.00,40.00,0,-999,0,0.00
2013-2-7,44,36,27,34,28,24,93,73,51,0.00,40.00,0,-999,0,0.00
2013-2-8,50,41,35,39,35,23,98,81,47,0.00,40.00,0,-999,0,0.00
2013-2-9,49,37,26,24,18,7,82,48,18,0.00,40.00,0,-999,0,0.00
2013-2-10,51,34,18,25,18,14,92,58,24,0.00,40.00,0,-999,0,0.00
2013-2-11,60,49,38,54,45,25,97,87,51,0.00,40.00,0,-999,0,0.00
2013-2-12,61,52,42,42,27,20,61,40,20,0.00,40.00,0,-999,0,0.00
2013-2-13,45,42,36,40,35,28,96,78,51,0.00,40.00,0,-999,0,0.00
2013-2-14,54,38,28,40,30,24,99,77,32,0.00,40.00,0,-999,0,0.00
2013-2-15,64,45,29,36,29,22,97,61,21,0.00,40.00,0,-999,0,0.00
2013-2-16,42,36,32,35,31,15,97,85,48,0.00,40.00,0,-999,0,0.00
2013-2-17,34,28,23,16,7,-1,69,42,23,0.00,40.00,0,-999,0,0.00
2013-2-18,51,32,15,18,10,1,83,45,15,0.00,40.00,0,-999,0,0.00
2013-2-19,48,41,35,45,32,17,96,73,42,0.00,40.00,0,-999,0,0.00
2013-2-20,47,37,27,36,16,10,92,46,23,0.00,40.00,0,-999,0,0.00
2013-2-21,45,34,25,19,14,12,70,45,27,0.00,40.00,0,-999,0,0.00
2013-2-22,38,34,32,33,23,15,93,65,47,0.00,40.00,0,-999,0,0.00
2013-2-23,43,38,34,40,37,33,98,96,92,0.00,40.00,0,-999,0,0.00
2013-2-24,58,45,36,41,35,20,98,72,23,0.00,40.00,0,-999,0,0.00
2013-2-25,45,35,25,24,20,16,86,58,33,0.00,40.00,0,-999,0,0.00
2013-2-26,51,38,25,50,35,22,97,90,75,0.00,40.00,0,-999,0,0.00
2013-2-27,61,48,35,48,39,30,98,75,36,0.00,40.00,0,-999,0,0.00
2013-2-28,49,42,35,35,28,20,92,59,32,0.00,40.00,0,-999,0,0.00
2013-3-1,45,39,30,28,25,21,86,58,44,0.00,40.00,0,-999,0,0.00
2013-3-2,38,35,30,25,22,20,80,58,48,0.00,40.00,0,-999,0,0.00
2013-3-3,45,34,22,26,19,15,95,60,30,0.00,40.00,0,-999,0,0.00
2013-3-4,49,33,21,20,14,8,87,52,19,0.00,40.00,0,-999,0,0.00
2013-3-5,51,36,22,37,23,16,96,65,28,0.00,40.00,0,-999,0,0.00
2013-3-6,39,35,32,36,33,29,99,93,67,0.00,40.00,0,-999,0,0.00
2013-3-7,49,40,32,29,26,23,83,57,38,0.00,40.00,0,-999,0,0.00
2013-3-8,49,41,32,27,25,21,74,53,39,0.00,40.00,0,-999,0,0.00
2013-3-9,61,44,30,30,24,18,83,52,19,0.00,40.00,0,-999,0,0.00
2013-3-10,67,46,26,38,24,13,93,54,15,0.00,40.00,0,-999,0,0.00
2013-3-11,69,54,41,49,44,38,96,72,46,0.00,40.00,0,-999,0,0.00
2013-3-12,69,59,46,62,52,32,96,78,56,0.00,40.00,0,-999,0,0.00
2013-3-13,54,42,31,34,26,12,97,59,29,0.00,40.00,0,-999,0,0.00
2013-3-14,52,39,29,18,14,7,60,37,17,0.00,40.00,0,-999,0,0.00
2013-3-15,59,42,26,33,24,15,83,51,25,0.00,40.00,0,-999,0,0.00
2013-3-16,71,52,38,55,43,33,97,75,42,0.00,40.00,0,-999,0,0.00
2013-3-17,49,39,33,44,36,32,97,88,78,0.00,40.00,0,-999,0,0.00
2013-3-18,36,34,32,35,33,32,98,97,96,0.00,40.00,0,-999,0,0.00
2013-3-19,65,45,33,39,27,-1,98,64,11,0.00,40.00,0,-999,0,0.00
2013-3-20,56,46,30,22,9,0,70,25,13,0.00,40.00,0,-999,0,0.00
2013-3-21,48,37,29,27,15,6,77,43,23,0.00,40.00,0,-999,0,0.00
2013-3-22,51,36,24,24,12,7,74,40,22,0.00,40.00,0,-999,0,0.00
2013-3-23,57,39,23,27,20,12,91,54,17,0.00,40.00,0,-999,0,0.00
2013-3-24,41,36,32,32,27,19,99,71,42,0.00,40.00,0,-999,0,0.00
2013-3-25,38,34,32,36,33,31,99,95,87,0.00,40.00,0,-999,0,0.00
2013-3-26,48,38,27,32,27,20,99,69,34,0.00,40.00,0,-999,0,0.00
2013-3-27,51,40,27,28,23,17,93,55,28,0.00,40.00,0,-999,0,0.00
2013-3-28,50,41,29,25,23,21,84,50,31,0.00,40.00,0,-999,0,0.00
2013-3-29,58,44,33,33,27,23,82,54,26,0.00,40.00,0,-999,0,0.00
2013-3-30,64,48,30,34,28,22,94,54,20,0.00,40.00,0,-999,0,0.00
2013-3-31,56,50,46,51,42,-100,96,79,48,0.00,40.00,0,-999,0,0.00
2013-4-1,69,54,38,45,37,22,98,60,29,0.00,40.00,0,-999,0,0.00
2013-4-2,56,44,30,26,17,6,80,39,14,0.00,40.00,0,-999,0,0.00
2013-4-3,57,42,26,24,14,6,82,40,13,0.00,40.00,0,-999,0,0.00
2013-4-4,51,40,28,36,20,10,97,50,22,0.00,40.00,0,-999,0,0.00
2013-4-5,66,49,36,41,34,26,98,64,23,0.00,40.00,0,-999,0,0.00
2013-4-6,60,49,40,34,22,14,73,37,17,0.00,40.00,0,-999,0,0.00
2013-4-7,74,54,33,40,34,28,91,52,26,0.00,40.00,0,-999,0,0.00
2013-4-8,82,67,51,49,44,40,75,47,24,0.00,40.00,0,-999,0,0.00
2013-4-9,88,74,59,53,50,46,76,46,24,0.00,40.00,0,-999,0,0.00
2013-4-10,93,78,64,56,53,49,73,45,22,0.00,40.00,0,-999,0,0.00
2013-4-11,87,75,62,58,56,51,82,53,29,0.00,40.00,0,-999,0,0.00
2013-4-12,83,73,63,67,59,37,97,65,29,0.00,40.00,0,-999,0,0.00
2013-4-13,74,62,47,53,40,34,90,49,24,0.00,40.00,0,-999,0,0.00
2013-4-14,76,60,40,44,37,30,92,51,20,0.00,40.00,0,-999,0,0.00
2013-4-15,67,59,53,53,49,34,94,71,37,0.00,40.00,0,-999,0,0.00
2013-4-16,80,65,53,58,54,51,93,71,42,0.00,40.00,0,-999,0,0.00
2013-4-17,82,70,61,60,58,56,89,67,44,0.00,40.00,0,-999,0,0.00
2013-4-18,82,69,59,62,57,53,91,68,38,0.00,40.00,0,-999,0,0.00
2013-4-19,81,70,64,66,62,58,97,77,53,0.00,40.00,0,-999,0,0.00
2013-4-20,64,56,47,62,35,22,95,50,21,0.00,40.00,0,-999,0,0.00
2013-4-21,58,50,42,33,26,24,65,41,27,0.00,40.00,0,-999,0,0.00
2013-4-22,58,46,33,42,35,32,94,67,41,0.00,40.00,0,-999,0,0.00
2013-4-23,64,51,46,47,43,40,93,74,48,0.00,40.00,0,-999,0,0.00
2013-4-24,79,61,42,54,48,40,96,68,38,0.00,40.00,0,-999,0,0.00
2013-4-25,68,59,49,54,37,28,71,46,23,0.00,40.00,0,-999,0,0.00
2013-4-26,71,55,39,44,37,27,94,56,20,0.00,40.00,0,-999,0,0.00
2013-4-27,74,61,46,44,40,33,89,50,26,0.00,40.00,0,-999,0,0.00
2013-4-28,66,58,51,51,40,-100,91,56,37,0.00,40.00,0,-999,0,0.00
2013-4-29,63,58,53,59,56,51,97,93,84,0.00,40.00,0,-999,0,0.00
2013-4-30,63,58,56,57,55,53,95,88,77,0.00,40.00,0,-999,0,0.00
2013-5-1,69,60,53,54,46,38,94,66,36,0.00,40.00,0,-999,0,0.00
2013-5-2,68,57,50,50,48,42,93,74,46,0.00,40.00,0,-999,0,0.00
2013-5-3,70,56,44,51,44,38,95,70,32,0.00,40.00,0,-999,0,0.00
2013-5-4,65,52,42,49,44,40,92,74,49,0.00,40.00,0,-999,0,0.00
2013-5-5,63,54,43,49,44,36,85,69,49,0.00,40.00,0,-999,0,0.00
2013-5-6,68,59,53,60,55,49,94,86,64,0.00,40.00,0,-999,0,0.00
2013-5-7,76,63,56,63,58,51,97,87,46,0.00,40.00,0,-999,0,0.00
2013-5-8,67,59,56,58,56,54,97,90,64,0.00,40.00,0,-999,0,0.00
2013-5-9,80,64,52,60,55,52,97,77,39,0.00,40.00,0,-999,0,0.00
2013-5-10,86,70,54,60,57,53,96,67,35,0.00,40.00,0,-999,0,0.00
2013-5-11,80,72,60,63,61,58,97,70,49,0.00,40.00,0,-999,0,0.00
2013-5-12,72,63,49,60,46,27,97,61,22,0.00,40.00,0,-999,0,0.00
2013-5-13,62,51,38,41,34,24,96,59,26,0.00,40.00,0,-999,0,0.00
2013-5-14,71,53,35,40,35,29,96,58,23,0.00,40.00,0,-999,0,0.00
2013-5-15,88,70,54,61,50,38,67,50,36,0.00,40.00,0,-999,0,0.00
2013-5-16,87,72,63,64,51,-100,96,68,34,0.00,40.00,0,-999,0,0.00
2013-5-17,85,71,61,63,53,-100,96,65,32,0.00,40.00,0,-999,0,0.00
2013-5-18,69,62,58,63,60,51,97,92,52,0.00,40.00,0,-999,0,0.00
2013-5-19,76,68,62,66,63,61,97,87,69,0.00,40.00,0,-999,0,0.00
2013-5-20,82,71,64,71,66,62,96,84,60,0.00,40.00,0,-999,0,0.00
2013-5-21,82,73,67,70,67,65,94,83,63,0.00,40.00,0,-999,0,0.00
2013-5-22,87,77,69,71,68,65,93,76,55,0.00,40.00,0,-999,0,0.00
2013-5-23,83,73,68,69,66,63,95,79,56,0.00,40.00,0,-999,0,0.00
2013-5-24,66,60,48,64,50,34,95,72,39,0.00,40.00,0,-999,0,0.00
2013-5-25,71,55,41,43,33,26,74,47,20,0.00,40.00,0,-999,0,0.00
2013-5-26,75,58,41,48,39,30,94,57,20,0.00,40.00,0,-999,0,0.00
2013-5-27,76,60,44,56,48,40,94,67,34,0.00,40.00,0,-999,0,0.00
2013-5-28,87,70,54,66,59,52,94,73,46,0.00,40.00,0,-999,0,0.00
2013-5-29,89,77,66,66,63,62,85,64,41,0.00,40.00,0,-999,0,0.00
2013-5-30,91,77,65,67,64,62,90,67,40,0.00,40.00,0,-999,0,0.00
2013-5-31,91,76,63,68,63,60,95,67,37,0.00,40.00,0,-999,0,0.00
2013-6-1,91,78,66,69,65,62,90,65,41,0.00,40.00,0,-999,0,0.00
2013-6-2,87,75,67,73,65,-100,97,75,51,0.00,40.00,0,-999,0,0.00
2013-6-3,84,73,67,71,67,63,97,83,50,0.00,40.00,0,-999,0,0.00
2013-6-4,79,69,57,66,49,36,93,55,22,0.00,40.00,0,-999,0,0.00
2013-6-5,83,69,54,58,54,48,93,62,33,0.00,40.00,0,-999,0,0.00
2013-6-6,78,69,60,67,60,51,87,72,60,0.00,40.00,0,-999,0,0.00
2013-6-7,71,69,67,69,68,66,96,95,91,0.00,40.00,0,-999,0,0.00
2013-6-8,83,71,65,68,65,61,97,83,48,0.00,40.00,0,-999,0,0.00
2013-6-9,86,72,61,71,66,60,96,82,48,0.00,40.00,0,-999,0,0.00
2013-6-10,83,74,69,75,70,67,96,88,67,0.00,40.00,0,-999,0,0.00
2013-6-11,84,75,68,69,66,62,96,76,49,0.00,40.00,0,-999,0,0.00
2013-6-12,90,77,64,72,67,62,95,73,46,0.00,40.00,0,-999,0,0.00
2013-6-13,90,76,67,73,70,59,96,82,51,0.00,40.00,0,-999,0,0.00
2013-6-14,78,68,60,60,54,50,92,64,38,0.00,40.00,0,-999,0,0.00
2013-6-15,84,70,56,63,57,53,96,69,35,0.00,40.00,0,-999,0,0.00
2013-6-16,87,75,62,69,65,59,93,73,50,0.00,40.00,0,-999,0,0.00
2013-6-17,87,76,68,71,69,66,94,81,58,0.00,40.00,0,-999,0,0.00
2013-6-18,77,72,66,73,67,64,96,87,77,0.00,40.00,0,-999,0,0.00
2013-6-19,77,69,63,64,63,61,97,82,61,0.00,40.00,0,-999,0,0.00
2013-6-20,82,70,63,64,60,54,95,73,41,0.00,40.00,0,-999,0,0.00
2013-6-22,85,77,70,72,68,65,93,76,53,0.00,40.00,0,-999,0,0.00
2013-6-23,87,76,69,73,70,67,96,81,59,0.00,40.00,0,-999,0,0.00
2013-6-24,90,78,70,74,70,68,95,79,52,0.00,40.00,0,-999,0,0.00
2013-6-25,92,81,71,72,70,67,95,71,44,0.00,40.00,0,-999,0,0.00
2013-6-26,92,77,69,73,70,65,96,80,51,0.00,40.00,0,-999,0,0.00
2013-6-27,85,74,67,74,68,65,96,84,58,0.00,40.00,0,-999,0,0.00
2013-6-28,90,78,70,74,69,67,93,75,53,0.00,40.00,0,-999,0,0.00
2013-6-29,89,78,69,71,67,61,93,71,41,0.00,40.00,0,-999,0,0.00
2013-6-30,87,77,67,74,71,66,97,83,60,0.00,40.00,0,-999,0,0.00
2013-7-1,84,74,68,74,71,67,97,91,66,0.00,40.00,0,-999,0,0.00
2013-7-2,80,74,71,74,71,70,96,91,79,0.00,40.00,0,-999,0,0.00
2013-7-3,85,76,71,76,72,69,95,89,69,0.00,40.00,0,-999,0,0.00
2013-7-4,90,80,72,73,71,69,96,77,53,0.00,40.00,0,-999,0,0.00
2013-7-5,91,80,71,74,71,69,94,76,54,0.00,40.00,0,-999,0,0.00
2013-7-6,89,79,72,74,72,68,95,79,51,0.00,40.00,0,-999,0,0.00
2013-7-7,89,80,72,74,72,70,93,76,56,0.00,40.00,0,-999,0,0.00
2013-7-8,86,77,71,73,70,67,95,80,55,0.00,40.00,0,-999,0,0.00
2013-7-9,89,79,71,75,72,70,95,81,58,0.00,40.00,0,-999,0,0.00
2013-7-10,90,78,71,76,72,69,97,82,58,0.00,40.00,0,-999,0,0.00
2013-7-11,83,75,70,73,71,69,97,87,66,0.00,40.00,0,-999,0,0.00
2013-7-12,76,71,66,70,68,65,97,89,77,0.00,40.00,0,-999,0,0.00
2013-7-13,86,75,67,74,69,65,96,83,62,0.00,40.00,0,-999,0,0.00
2013-7-14,91,80,71,75,71,66,96,76,43,0.00,40.00,0,-999,0,0.00
2013-7-15,92,79,69,74,71,67,95,78,48,0.00,40.00,0,-999,0,0.00
2013-7-16,93,80,72,75,72,70,95,78,52,0.00,40.00,0,-999,0,0.00
2013-7-17,94,81,72,76,73,69,96,78,45,0.00,40.00,0,-999,0,0.00
2013-7-18,95,83,72,77,73,68,95,75,42,0.00,40.00,0,-999,0,0.00
2013-7-19,94,83,74,78,74,72,95,76,50,0.00,40.00,0,-999,0,0.00
2013-7-20,92,82,74,76,73,68,90,76,53,0.00,40.00,0,-999,0,0.00
2013-7-21,92,78,71,75,72,70,96,82,52,0.00,40.00,0,-999,0,0.00
2013-7-22,89,77,70,75,71,69,96,83,60,0.00,40.00,0,-999,0,0.00
2013-7-23,90,80,72,73,71,67,95,75,52,0.00,40.00,0,-999,0,0.00
2013-7-24,87,78,70,73,68,62,96,74,51,0.00,40.00,0,-999,0,0.00
2013-7-25,81,73,66,63,58,55,85,60,45,0.00,40.00,0,-999,0,0.00
2013-7-26,85,71,59,65,60,56,94,72,39,0.00,40.00,0,-999,0,0.00
2013-7-27,86,73,63,72,67,61,96,84,53,0.00,40.00,0,-999,0,0.00
2013-7-28,89,75,67,72,69,64,97,82,48,0.00,40.00,0,-999,0,0.00
2013-7-29,84,72,67,68,62,53,97,75,40,0.00,40.00,0,-999,0,0.00
2013-7-30,85,72,61,66,61,56,95,72,37,0.00,40.00,0,-999,0,0.00
2013-7-31,83,70,64,71,66,62,96,88,58,0.00,40.00,0,-999,0,0.00
2013-8-1,85,71,67,75,68,66,97,92,56,0.00,40.00,0,-999,0,0.00
2013-8-2,86,74,63,69,65,61,97,75,45,0.00,40.00,0,-999,0,0.00
2013-8-3,84,75,65,70,66,60,96,77,45,0.00,40.00,0,-999,0,0.00
2013-8-4,82,74,64,69,60,49,94,65,35,0.00,40.00,0,-999,0,0.00
2013-8-5,82,68,58,63,58,49,96,74,34,0.00,40.00,0,-999,0,0.00
2013-8-6,77,69,64,68,66,63,97,91,75,0.00,40.00,0,-999,0,0.00
2013-8-7,86,76,69,71,68,67,96,80,58,0.00,40.00,0,-999,0,0.00
2013-8-8,87,78,71,74,71,69,93,81,58,0.00,40.00,0,-999,0,0.00
2013-8-9,91,82,74,76,73,71,91,76,58,0.00,40.00,0,-999,0,0.00
2013-8-10,85,76,71,74,71,69,96,84,63,0.00,40.00,0,-999,0,0.00
2013-8-11,72,71,69,71,69,68,97,96,95,0.00,40.00,0,-999,0,0.00
2013-8-20,87,79,71,71,70,67,95,74,52,0.00,40.00,0,-999,0,0.00
2013-8-21,89,76,67,74,70,65,96,84,58,0.00,40.00,0,-999,0,0.00
2013-8-22,89,78,71,72,70,64,96,79,44,0.00,40.00,0,-999,0,0.00
2013-8-23,79,69,62,71,66,59,97,91,71,0.00,40.00,0,-999,0,0.00
2013-8-24,83,68,57,65,58,-100,97,79,40,0.00,40.00,0,-999,0,0.00
2013-8-25,81,68,58,64,59,55,97,76,41,0.00,40.00,0,-999,0,0.00
2013-8-26,84,69,55,65,60,53,96,74,46,0.00,40.00,0,-999,0,0.00
2013-8-27,88,72,61,72,64,60,94,79,50,0.00,40.00,0,-999,0,0.00
2013-8-28,79,74,72,72,71,70,96,90,77,0.00,40.00,0,-999,0,0.00
2013-8-29,84,76,71,72,70,67,97,83,60,0.00,40.00,0,-999,0,0.00
2013-8-30,86,74,65,71,67,63,97,80,50,0.00,40.00,0,-999,0,0.00
2013-8-31,88,76,68,75,69,65,95,81,60,0.00,40.00,0,-999,0,0.00
2013-9-1,91,77,68,76,70,67,97,81,51,0.00,40.00,0,-999,0,0.00
2013-9-2,89,78,71,73,71,69,96,81,53,0.00,40.00,0,-999,0,0.00
2013-9-3,87,76,69,71,67,60,96,75,48,0.00,40.00,0,-999,0,0.00
2013-9-4,82,72,64,65,59,55,92,65,46,0.00,40.00,0,-999,0,0.00
2013-9-5,87,73,60,66,60,52,95,68,31,0.00,40.00,0,-999,0,0.00
2013-9-6,79,68,59,59,55,51,89,63,40,0.00,40.00,0,-999,0,0.00
2013-9-7,80,66,55,65,59,53,96,79,56,0.00,40.00,0,-999,0,0.00
2013-9-8,87,73,60,70,63,58,96,74,44,0.00,40.00,0,-999,0,0.00
2013-9-9,81,74,67,69,64,56,92,71,59,0.00,40.00,0,-999,0,0.00
2013-9-10,90,77,67,73,69,65,96,79,52,0.00,40.00,0,-999,0,0.00
2013-9-11,92,79,69,73,69,67,93,74,49,0.00,40.00,0,-999,0,0.00
2013-9-12,90,76,67,72,68,65,97,78,50,0.00,40.00,0,-999,0,0.00
2013-9-13,80,71,64,68,60,50,97,72,38,0.00,40.00,0,-999,0,0.00
2013-9-14,71,61,53,53,48,43,92,63,39,0.00,40.00,0,-999,0,0.00
2013-9-15,78,59,46,60,51,45,96,80,42,0.00,40.00,0,-999,0,0.00
2013-9-16,73,63,55,63,58,53,95,83,64,0.00,40.00,0,-999,0,0.00
2013-9-17,69,59,49,53,49,41,96,72,35,0.00,40.00,0,-999,0,0.00
2013-9-18,55,45,43,46,43,41,95,93,88,0.00,40.00,0,-999,0,0.00
2013-9-19,77,61,49,60,54,47,95,79,47,0.00,40.00,0,-999,0,0.00
2013-9-20,80,67,55,63,58,53,95,77,50,0.00,40.00,0,-999,0,0.00
2013-9-21,73,66,57,67,62,55,97,87,70,0.00,40.00,0,-999,0,0.00
2013-9-22,75,64,56,64,56,51,98,77,44,0.00,40.00,0,-999,0,0.00
2013-9-23,68,59,49,52,47,42,95,67,44,0.00,40.00,0,-999,0,0.00
2013-9-24,74,58,45,56,49,44,96,76,45,0.00,40.00,0,-999,0,0.00
2013-9-25,75,60,47,58,52,45,96,78,41,0.00,40.00,0,-999,0,0.00
2013-9-26,77,64,55,59,54,50,95,74,40,0.00,40.00,0,-999,0,0.00
2013-9-27,72,59,50,59,53,49,95,82,57,0.00,40.00,0,-999,0,0.00
2013-9-28,69,60,49,57,53,48,96,79,56,0.00,40.00,0,-999,0,0.00
2013-9-29,74,60,48,58,53,47,97,80,50,0.00,40.00,0,-999,0,0.00
2013-9-30,77,60,49,58,52,48,96,78,39,0.00,40.00,0,-999,0,0.00
2013-10-1,67,61,55,62,58,52,93,90,84,0.00,40.00,0,-999,0,0.00
2013-10-2,84,67,54,63,57,52,96,75,38,0.00,40.00,0,-999,0,0.00
2013-10-3,85,68,56,67,60,54,96,78,44,0.00,40.00,0,-999,0,0.00
2013-10-4,88,72,60,67,62,58,95,74,39,0.00,40.00,0,-999,0,0.00
2013-10-5,90,74,60,68,63,59,95,74,38,0.00,40.00,0,-999,0,0.00
2013-10-6,89,73,62,66,63,60,95,74,41,0.00,40.00,0,-999,0,0.00
2013-10-7,76,69,59,70,66,52,97,89,80,0.00,40.00,0,-999,0,0.00
2013-10-8,63,57,53,53,47,45,85,71,52,0.00,40.00,0,-999,0,0.00
2013-10-9,57,55,53,54,51,48,95,86,78,0.00,40.00,0,-999,0,0.00
2013-10-10,57,55,53,55,53,52,96,93,90,0.00,40.00,0,-999,0,0.00
2013-10-11,61,59,57,59,57,55,96,93,88,0.00,40.00,0,-999,0,0.00
2013-10-12,64,62,60,62,61,59,97,95,92,0.00,40.00,0,-999,0,0.00
2013-10-13,63,62,60,61,60,58,96,95,92,0.00,40.00,0,-999,0,0.00
2013-10-14,67,60,51,58,56,50,96,86,62,0.00,40.00,0,-999,0,0.00
2013-10-15,70,59,47,59,54,46,98,84,58,0.00,40.00,0,-999,0,0.00
2013-10-16,72,64,56,64,60,55,100,88,73,0.00,40.00,0,-999,0,0.00
2013-10-17,75,66,59,65,62,59,100,90,68,0.00,40.00,0,-999,0,0.00
2013-10-18,70,59,49,63,50,42,99,75,38,0.00,40.00,0,-999,0,0.00
2013-10-19,62,55,47,61,55,47,100,99,93,0.00,40.00,0,-999,0,0.00
2013-10-20,65,52,40,57,42,31,100,75,31,0.00,40.00,0,-999,0,0.00
2013-10-21,69,51,37,48,43,37,100,79,38,0.00,40.00,0,-999,0,0.00
2013-10-22,73,57,47,57,51,46,100,83,43,0.00,40.00,0,-999,0,0.00
2013-10-23,60,51,44,53,44,36,99,77,49,0.00,40.00,0,-999,0,0.00
2013-10-24,54,44,34,38,34,30,100,73,40,0.00,40.00,0,-999,0,0.00
2013-10-25,56,42,29,35,29,22,100,68,27,0.00,40.00,0,-999,0,0.00
2013-10-26,59,42,27,38,30,26,100,72,28,0.00,40.00,0,-999,0,0.00
2013-10-27,64,49,35,44,38,34,100,70,34,0.00,40.00,0,-999,0,0.00
2013-10-28,68,49,35,48,42,35,100,81,41,0.00,40.00,0,-999,0,0.00
2013-10-29,69,56,47,50,48,44,98,75,42,0.00,40.00,0,-999,0,0.00
2013-10-30,69,55,45,60,53,45,100,94,70,0.00,40.00,0,-999,0,0.00
2013-10-31,72,61,51,62,57,51,100,86,68,0.00,40.00,0,-999,0,0.00
2013-11-1,72,68,62,65,63,58,100,87,72,0.00,40.00,0,-999,0,0.00
2013-11-2,73,61,48,63,50,35,100,74,28,0.00,40.00,0,-999,0,0.00
2013-11-3,59,46,34,43,35,24,100,73,26,0.00,40.00,0,-999,0,0.00
2013-11-4,50,41,34,33,28,23,96,63,35,0.00,40.00,0,-999,0,0.00
2013-11-5,54,46,35,47,38,31,90,76,62,0.00,40.00,0,-999,0,0.00
2013-11-6,72,55,43,53,49,43,100,83,50,0.00,40.00,0,-999,0,0.00
2013-11-7,68,57,44,62,52,32,100,86,48,0.00,40.00,0,-999,0,0.00
2013-11-8,56,41,30,34,29,20,100,68,27,0.00,40.00,0,-999,0,0.00
2013-11-9,60,41,26,35,29,26,100,68,29,0.00,40.00,0,-999,0,0.00
2013-11-10,69,54,38,36,30,21,81,45,18,0.00,40.00,0,-999,0,0.00
2013-11-11,61,45,31,32,30,27,94,59,29,0.00,40.00,0,-999,0,0.00
2013-11-12,49,42,32,39,26,13,75,53,36,0.00,40.00,0,-999,0,0.00
2013-11-13,45,32,21,23,18,14,94,61,29,0.00,40.00,0,-999,0,0.00
2013-11-14,61,39,20,25,19,13,100,57,15,0.00,40.00,0,-999,0,0.00
2013-11-15,62,52,33,45,30,21,96,46,21,0.00,40.00,0,-999,0,0.00
2013-11-16,56,52,46,55,52,45,100,99,96,0.00,40.00,0,-999,0,0.00
2013-11-17,69,59,49,62,56,49,100,90,67,0.00,40.00,0,-999,0,0.00
2013-11-18,70,62,52,66,43,22,100,56,23,0.00,40.00,0,-999,0,0.00
2013-11-19,53,46,38,31,27,22,71,49,30,0.00,40.00,0,-999,0,0.00
2013-11-20,49,40,34,35,29,26,90,66,45,0.00,40.00,0,-999,0,0.00
2013-11-21,55,45,36,44,40,34,95,81,63,0.00,40.00,0,-999,0,0.00
2013-11-22,72,57,44,57,50,42,95,78,55,0.00,40.00,0,-999,0,0.00
2013-11-23,62,51,40,57,34,16,88,55,27,0.00,40.00,0,-999,0,0.00
2013-11-24,40,30,20,19,5,-2,72,35,22,0.00,40.00,0,-999,0,0.00
2013-11-25,40,28,15,18,12,7,97,57,26,0.00,40.00,0,-999,0,0.00
2013-11-26,60,40,33,60,35,11,100,86,35,0.00,40.00,0,-999,0,0.00
2013-11-27,41,38,31,41,37,20,100,95,59,0.00,40.00,0,-999,0,0.00
2013-11-28,42,30,21,26,20,15,100,67,35,0.00,40.00,0,-999,0,0.00
2013-11-29,44,30,21,26,23,20,100,78,39,0.00,40.00,0,-999,0,0.00
2013-11-30,42,31,22,29,25,22,100,81,50,0.00,40.00,0,-999,0,0.00
2013-12-1,54,34,20,33,27,20,100,82,38,0.00,40.00,0,-999,0,0.00
2013-12-2,58,41,27,39,33,27,100,77,40,0.00,40.00,0,-999,0,0.00
2013-12-3,61,43,32,42,38,32,100,85,45,0.00,40.00,0,-999,0,0.00
2013-12-4,61,52,44,54,49,42,100,91,73,0.00,40.00,0,-999,0,0.00
2013-12-5,64,60,52,63,59,52,100,98,88,0.00,40.00,0,-999,0,0.00
2013-12-6,68,58,43,65,57,43,100,96,89,0.00,40.00,0,-999,0,0.00
2013-12-7,45,40,34,43,35,26,100,83,61,0.00,40.00,0,-999,0,0.00
2013-12-8,34,31,30,31,29,23,100,90,69,0.00,40.00,0,-999,0,0.00
2013-12-9,38,35,31,38,35,31,100,100,100,0.00,40.00,0,-999,0,0.00
2013-12-10,38,35,29,37,35,26,100,99,83,0.00,40.00,0,-999,0,0.00
2013-12-11,47,32,21,28,24,19,100,79,35,0.00,40.00,0,-999,0,0.00
2013-12-12,40,29,22,27,20,11,100,74,31,0.00,40.00,0,-999,0,0.00
2013-12-13,48,32,21,27,19,13,95,63,27,0.00,40.00,0,-999,0,0.00
2013-12-14,42,36,30,41,33,27,100,91,68,0.00,40.00,0,-999,0,0.00
2013-12-15,53,42,35,43,33,26,100,76,39,0.00,40.00,0,-999,0,0.00
2013-12-16,47,37,28,33,30,26,99,75,49,0.00,40.00,0,-999,0,0.00
2013-12-17,53,39,28,42,35,28,100,86,53,0.00,40.00,0,-999,0,0.00
2013-12-18,45,35,26,40,30,21,100,86,41,0.00,40.00,0,-999,0,0.00
2013-12-19,64,45,25,27,25,22,100,53,23,0.00,40.00,0,-999,0,0.00
2013-12-20,66,54,44,51,41,27,83,63,43,0.00,40.00,0,-999,0,0.00
2013-12-21,71,61,53,62,54,48,93,79,57,0.00,40.00,0,-999,0,0.00
2013-12-22,73,66,60,67,63,60,100,92,79,0.00,40.00,0,-999,0,0.00
2013-12-23,65,58,42,65,57,31,100,96,68,0.00,40.00,0,-999,0,0.00
2013-12-24,43,37,29,31,23,7,81,59,39,0.00,40.00,0,-999,0,0.00
2013-12-25,36,26,20,21,13,8,96,60,33,0.00,40.00,0,-999,0,0.00
2013-12-26,49,30,18,27,22,18,100,77,32,0.00,40.00,0,-999,0,0.00
2013-12-27,53,33,22,29,23,18,100,73,26,0.00,40.00,0,-999,0,0.00
2013-12-28,62,40,22,30,25,21,100,63,21,0.00,40.00,0,-999,0,0.00
2013-12-29,51,45,39,51,44,29,100,96,50,0.00,40.00,0,-999,0,0.00
2013-12-30,52,41,33,44,36,30,100,84,65,0.00,40.00,0,-999,0,0.00
2013-12-31,51,38,27,33,26,17,98,66,29,0.00,40.00,0,-999,0,0.00
2014-1-1,51,33,22,32,26,22,100,82,40,0.00,40.00,0,-999,0,0.00
2014-1-2,43,34,26,39,32,26,100,93,66,0.00,40.00,0,-999,0,0.00